Time,TemperatureF,DewpointF,PressureIn,WindDirection,WindDirectionDegrees,WindSpeedMPH,WindSpeedGustMPH,Humidity,HourlyPrecipIn,Conditions,Clouds,dailyrainin,SolarRadiationWatts/m^2,SoftwareType,DateUTC
2013-06-03 14:40:00,81.6,63.3,58.94,NNW,332,5.0,6.0,54,0.00,,,0.00,0,Wunderground v.1.15,2013-06-03 21:40:00,
2013-06-03 14:49:00,81.0,63.3,58.94,WNW,301,1.0,6.0,55,0.00,,,0.00,0,Wunderground v.1.15,2013-06-03 21:49:00,
2013-06-03 14:54:00,80.6,63.5,58.94,NNW,334,4.0,6.0,56,0.00,,,0.00,0,Wunderground v.1.15,2013-06-03 21:54:00,
2013-06-03 15:04:00,80.2,63.1,29.69,SSW,207,1.0,6.0,56,0.00,,,0.00,0,Wunderground v.1.15,2013-06-03 22:04:00,
2013-06-03 15:14:00,80.3,63.2,29.69,North,0,4.0,4.0,56,0.00,,,0.00,0,Wunderground v.1.15,2013-06-03 22:14:00,
2013-06-03 15:19:00,80.0,62.9,29.68,WNW,287,1.0,1.0,56,0.00,,,0.00,0,Wunderground v.1.15,2013-06-03 22:19:00,
2013-06-03 15:29:00,79.5,62.4,29.69,NW,304,8.0,8.0,56,0.00,,,0.00,0,Wunderground v.1.15,2013-06-03 22:29:00,
2013-06-03 15:34:00,79.9,62.8,29.68,WNW,292,8.0,8.0,56,0.00,,,0.00,0,Wunderground v.1.15,2013-06-03 22:34:00,
2013-06-03 15:44:00,79.6,62.5,29.68,WNW,302,6.0,9.0,56,0.00,,,0.00,0,Wunderground v.1.15,2013-06-03 22:44:00,
2013-06-03 15:54:00,78.9,62.4,29.68,NW,314,3.0,3.0,57,0.00,,,0.00,0,Wunderground v.1.15,2013-06-03 22:54:00,
2013-06-03 15:59:00,78.5,62.0,29.68,NW,304,4.0,4.0,57,0.00,,,0.00,0,Wunderground v.1.15,2013-06-03 22:59:00,
2013-06-03 16:09:00,78.3,62.3,29.68,WNW,289,7.0,7.0,58,0.00,,,0.00,0,Wunderground v.1.15,2013-06-03 23:09:00,
2013-06-03 16:14:00,78.3,61.8,29.68,NW,310,7.0,7.0,57,0.00,,,0.00,0,Wunderground v.1.15,2013-06-03 23:14:00,
2013-06-03 16:24:00,77.7,61.7,29.68,NNW,331,8.0,10.0,58,0.00,,,0.00,0,Wunderground v.1.15,2013-06-03 23:24:00,
2013-06-03 16:29:00,77.1,61.2,29.68,NW,305,9.0,9.0,58,0.00,,,0.00,0,Wunderground v.1.15,2013-06-03 23:29:00,
2013-06-03 16:39:00,76.6,61.7,29.68,WNW,293,4.0,4.0,60,0.00,,,0.00,0,Wunderground v.1.15,2013-06-03 23:39:00,
2013-06-03 16:49:00,76.5,61.6,29.68,NW,325,4.0,4.0,60,0.00,,,0.00,0,Wunderground v.1.15,2013-06-03 23:49:00,
2013-06-03 16:59:00,76.0,61.1,29.68,WNW,303,10.0,10.0,60,0.00,,,0.00,0,Wunderground v.1.15,2013-06-03 23:59:00,
2013-06-03 17:04:00,75.1,60.7,29.68,NNW,345,7.0,10.0,61,0.00,,,0.00,0,Wunderground v.1.15,2013-06-04 00:04:00,
2013-06-03 17:09:00,74.4,60.5,29.69,NW,322,4.0,4.0,62,0.00,,,0.00,0,Wunderground v.1.15,2013-06-04 00:09:00,
2013-06-03 17:19:00,74.1,60.2,29.68,NW,313,4.0,4.0,62,0.00,,,0.00,0,Wunderground v.1.15,2013-06-04 00:19:00,
2013-06-03 17:29:00,73.8,60.0,29.68,North,355,4.0,4.0,62,0.00,,,0.00,0,Wunderground v.1.15,2013-06-04 00:29:00,
2013-06-03 17:39:00,73.5,59.2,29.68,WNW,300,9.0,9.0,61,0.00,,,0.00,0,Wunderground v.1.15,2013-06-04 00:39:00,
2013-06-03 17:49:00,72.5,57.8,29.68,NNW,333,4.0,4.0,60,0.00,,,0.00,0,Wunderground v.1.15,2013-06-04 00:49:00,
2013-06-03 17:54:00,72.1,57.9,29.68,NW,314,5.0,5.0,61,0.00,,,0.00,0,Wunderground v.1.15,2013-06-04 00:54:00,
2013-06-03 17:59:00,71.7,58.0,29.69,WNW,296,2.0,2.0,62,0.00,,,0.00,0,Wunderground v.1.15,2013-06-04 00:59:00,
2013-06-03 18:04:00,71.9,58.2,29.69,NW,304,3.0,3.0,62,0.00,,,0.00,0,Wunderground v.1.15,2013-06-04 01:04:00,
2013-06-03 18:14:00,71.8,58.1,29.69,NNW,329,5.0,7.0,62,0.00,,,0.00,0,Wunderground v.1.15,2013-06-04 01:14:00,
2013-06-03 18:24:00,70.5,56.4,29.69,NNW,328,7.0,7.0,61,0.00,,,0.00,0,Wunderground v.1.15,2013-06-04 01:24:00,
2013-06-03 18:34:00,69.4,54.4,29.70,NW,324,4.0,5.0,59,0.00,,,0.00,0,Wunderground v.1.15,2013-06-04 01:34:00,
2013-06-03 18:44:00,68.5,51.7,29.70,WNW,300,8.0,8.0,55,0.00,,,0.00,0,Wunderground v.1.15,2013-06-04 01:44:00,
2013-06-03 18:54:00,67.8,51.0,29.70,NW,312,5.0,5.0,55,0.00,,,0.00,0,Wunderground v.1.15,2013-06-04 01:54:00,
2013-06-03 19:04:00,66.7,52.4,29.71,WNW,293,6.0,11.0,60,0.00,,,0.00,0,Wunderground v.1.15,2013-06-04 02:04:00,
2013-06-03 19:09:00,66.6,54.0,29.71,NW,323,6.0,6.0,64,0.00,,,0.00,0,Wunderground v.1.15,2013-06-04 02:09:00,
2013-06-03 19:19:00,66.2,57.7,29.72,NW,310,5.0,5.0,74,0.00,,,0.00,0,Wunderground v.1.15,2013-06-04 02:19:00,
2013-06-03 19:24:00,66.3,57.4,29.72,WNW,298,6.0,6.0,73,0.00,,,0.00,0,Wunderground v.1.15,2013-06-04 02:24:00,
2013-06-03 19:29:00,66.1,57.2,29.72,WNW,301,4.0,4.0,73,0.00,,,0.00,0,Wunderground v.1.15,2013-06-04 02:29:00,
2013-06-03 19:39:00,65.3,54.1,29.73,NW,317,7.0,7.0,67,0.00,,,0.00,0,Wunderground v.1.15,2013-06-04 02:39:00,
2013-06-03 19:49:00,64.9,52.8,29.73,NW,312,3.0,3.0,65,0.00,,,0.00,0,Wunderground v.1.15,2013-06-04 02:49:00,
2013-06-03 19:59:00,63.9,51.9,29.73,NNW,339,2.0,2.0,65,0.00,,,0.00,0,Wunderground v.1.15,2013-06-04 02:59:00,
2013-06-03 20:09:00,63.2,54.4,29.73,WNW,302,4.0,4.0,73,0.00,,,0.00,0,Wunderground v.1.15,2013-06-04 03:09:00,
2013-06-03 20:14:00,62.8,52.9,29.73,WNW,300,3.0,4.0,70,0.00,,,0.00,0,Wunderground v.1.15,2013-06-04 03:14:00,
2013-06-03 20:19:00,62.5,54.8,29.73,NW,324,3.0,3.0,76,0.00,,,0.00,0,Wunderground v.1.15,2013-06-04 03:19:00,
2013-06-03 20:29:00,62.0,54.7,29.74,NW,312,2.0,2.0,77,0.00,,,0.00,0,Wunderground v.1.15,2013-06-04 03:29:00,
2013-06-03 20:34:00,61.9,54.6,29.74,WNW,301,1.0,2.0,77,0.00,,,0.00,0,Wunderground v.1.15,2013-06-04 03:34:00,
2013-06-03 20:44:00,61.5,54.2,29.74,WNW,303,1.0,2.0,77,0.00,,,0.00,0,Wunderground v.1.15,2013-06-04 03:44:00,
2013-06-03 20:49:00,61.3,53.7,29.74,WNW,295,2.0,2.0,76,0.00,,,0.00,0,Wunderground v.1.15,2013-06-04 03:49:00,
2013-06-03 20:54:00,61.0,53.7,29.74,NW,322,3.0,3.0,77,0.00,,,0.00,0,Wunderground v.1.15,2013-06-04 03:54:00,
2013-06-03 20:59:00,60.9,53.6,29.74,NW,308,1.0,1.0,77,0.00,,,0.00,0,Wunderground v.1.15,2013-06-04 03:59:00,
2013-06-03 21:04:00,60.7,53.8,29.74,WNW,301,2.0,2.0,78,0.00,,,0.00,0,Wunderground v.1.15,2013-06-04 04:04:00,
2013-06-03 21:09:00,60.4,53.5,29.75,WNW,298,2.0,2.0,78,0.00,,,0.00,0,Wunderground v.1.15,2013-06-04 04:09:00,
2013-06-03 21:19:00,59.8,46.3,29.75,WNW,299,3.0,3.0,61,0.00,,,0.00,0,Wunderground v.1.15,2013-06-04 04:19:00,
2013-06-03 21:24:00,59.6,45.2,29.75,North,349,6.0,6.0,59,0.00,,,0.00,0,Wunderground v.1.15,2013-06-04 04:24:00,
2013-06-03 21:29:00,59.4,49.6,29.75,NNW,327,2.0,2.0,70,0.00,,,0.00,0,Wunderground v.1.15,2013-06-04 04:29:00,
2013-06-03 21:39:00,59.1,45.7,29.75,NW,317,2.0,2.0,61,0.00,,,0.00,0,Wunderground v.1.15,2013-06-04 04:39:00,
2013-06-03 21:44:00,58.9,49.1,29.75,NNW,338,4.0,4.0,70,0.00,,,0.00,0,Wunderground v.1.15,2013-06-04 04:44:00,
2013-06-03 21:49:00,58.6,48.5,29.75,NW,308,2.0,2.0,69,0.00,,,0.00,0,Wunderground v.1.15,2013-06-04 04:49:00,
2013-06-03 21:54:00,58.5,46.4,29.75,NW,326,2.0,2.0,64,0.00,,,0.00,0,Wunderground v.1.15,2013-06-04 04:54:00,
2013-06-03 22:04:00,58.1,46.0,29.75,NW,317,1.0,3.0,64,0.00,,,0.00,0,Wunderground v.1.15,2013-06-04 05:04:00,
2013-06-03 22:09:00,58.1,46.8,29.75,NW,323,1.0,1.0,66,0.00,,,0.00,0,Wunderground v.1.15,2013-06-04 05:09:00,
2013-06-03 22:14:00,58.0,47.1,29.75,NNW,327,0.0,1.0,67,0.00,,,0.00,0,Wunderground v.1.15,2013-06-04 05:14:00,
2013-06-03 22:19:00,57.9,47.0,29.75,NNW,327,1.0,1.0,67,0.00,,,0.00,0,Wunderground v.1.15,2013-06-04 05:19:00,
2013-06-03 22:24:00,57.8,47.7,29.75,NNW,345,4.0,4.0,69,0.00,,,0.00,0,Wunderground v.1.15,2013-06-04 05:24:00,
2013-06-03 22:29:00,57.7,48.0,29.75,NW,319,3.0,3.0,70,0.00,,,0.00,0,Wunderground v.1.15,2013-06-04 05:29:00,
2013-06-03 22:34:00,57.5,47.8,29.75,NW,313,1.0,3.0,70,0.00,,,0.00,0,Wunderground v.1.15,2013-06-04 05:34:00,
2013-06-03 22:39:00,57.4,47.3,29.75,NW,310,3.0,3.0,69,0.00,,,0.00,0,Wunderground v.1.15,2013-06-04 05:39:00,
2013-06-03 22:49:00,57.2,51.1,29.75,NW,308,1.0,1.0,80,0.00,,,0.00,0,Wunderground v.1.15,2013-06-04 05:49:00,
2013-06-03 22:59:00,57.0,45.7,29.76,NW,308,0.0,0.0,66,0.00,,,0.00,0,Wunderground v.1.15,2013-06-04 05:59:00,
2013-06-03 23:09:00,56.8,44.7,29.76,NW,316,3.0,3.0,64,0.00,,,0.00,0,Wunderground v.1.15,2013-06-04 06:09:00,
2013-06-03 23:14:00,56.7,43.0,29.76,WNW,302,2.0,3.0,60,0.00,,,0.00,0,Wunderground v.1.15,2013-06-04 06:14:00,
2013-06-03 23:19:00,56.5,42.3,29.76,NW,313,1.0,1.0,59,0.00,,,0.00,0,Wunderground v.1.15,2013-06-04 06:19:00,
2013-06-03 23:29:00,56.3,42.6,29.76,WNW,303,4.0,4.0,60,0.00,,,0.00,0,Wunderground v.1.15,2013-06-04 06:29:00,
2013-06-03 23:34:00,56.2,42.9,29.76,NW,316,1.0,4.0,61,0.00,,,0.00,0,Wunderground v.1.15,2013-06-04 06:34:00,
2013-06-03 23:39:00,56.1,42.8,29.76,NW,316,1.0,1.0,61,0.00,,,0.00,0,Wunderground v.1.15,2013-06-04 06:39:00,
2013-06-03 23:44:00,56.1,42.8,29.76,WNW,297,1.0,1.0,61,0.00,,,0.00,0,Wunderground v.1.15,2013-06-04 06:44:00,
2013-06-03 23:49:00,56.0,42.7,29.76,NNW,339,3.0,3.0,61,0.00,,,0.00,0,Wunderground v.1.15,2013-06-04 06:49:00,
2013-06-03 23:59:00,55.8,42.5,29.76,WNW,297,1.0,1.0,61,0.00,,,0.00,0,Wunderground v.1.15,2013-06-04 06:59:00,